Regional Weather Roundup
Issued by NWS

Home | Current Version | Previous Version | Graphics & Text | Print | Product List | Glossary On
Versions: 1 2 3 4 5 6 7 8 9 10 11 12 13 14 15 16 17 18 19 20 21 22 23 24 25 26 27 28 29 30 31 32 33 34 35 36 37 38 39 40 41 42 43 44 45 46 47 48 49 50
000
ASUS43 KMPX 240901
RWRMN
WEATHER ROUNDUP FOR MINNESOTA
NATIONAL WEATHER SERVICE TWIN CITIES/CHANHASSEN MN
400 AM CDT WED AUG 24 2016


NOTE: "FAIR" INDICATES FEW OR NO CLOUDS BELOW 12,000 FEET WITH NO
SIGNIFICANT WEATHER AND/OR OBSTRUCTIONS TO VISIBILITY. N/A MEANS
CURRENT SKY AND/OR WEATHER CONDITIONS ARE NOT AVAILABLE.

MNZ060>063-068>070-241000-
   Twin Cities Metro

CITY           SKY/WX    TMP DP  RH WIND       PRES   REMARKS
TWIN CITIES    CLOUDY    69  66  90 S5        29.81R
ST PAUL        CLOUDY    68  66  93 S6        29.81R
CRYSTAL        CLOUDY    68  64  87 SW3       29.80R
BLAINE         MOCLDY    70  70 100 CALM      29.81R
LAKEVILLE      CLOUDY    64  64 100 S5        29.82R
EDEN PRAIRIE   CLOUDY    68  66  93 S6        29.80S
LAKEVILLE      CLOUDY    64  64 100 S5        29.82R
SOUTH ST PAUL  CLOUDY    68  68  98 S3        29.81R
LAKE ELMO      CLOUDY    68  68 100 S8        29.82R
$$
MNZ001>005-007-008-013>017-022>024-027-028-241000-
   Northwest Minnesota

CITY           SKY/WX    TMP DP  RH WIND       PRES   REMARKS
BEMIDJI        CLOUDY    69  67  92 SW5       29.80R
HALLOCK        CLEAR     57  54  88 W3        29.76F
ROSEAU         CLOUDY    66  61  82 W9        29.76S
WARROAD        CLOUDY    66  64  94 W9        29.75S
THIEF RVR FALL CLEAR     59  54  83 W6        29.81R
CROOKSTON      CLEAR     57  55  94 W7        29.81S
FOSSTON        MOCLDY    63  55  77 W3        29.82R
DETROIT LAKES  MOCLDY    66  55  68 NW9       29.84R
MOORHEAD       CLEAR     63  55  77 NW6       29.84R
PARK RAPIDS    CLOUDY    69  67  93 SW5       29.82R
MAHNOMEN       CLOUDY    65  55  68 CALM      29.82R
$$
MNZ006-009>011-018-025>026-241000-
   North Central Minnesota

CITY           SKY/WX    TMP DP  RH WIND       PRES   REMARKS
BAUDETTE       CLOUDY    71  67  87 SW6       29.74S
FLAG ISLAND    CLOUDY    70  66  88 W3        29.71R
INTL FALLS     CLOUDY    71  66  84 S5        29.76S
WASKISH        CLOUDY    72  68  88 SW5       29.77R
BIG FORK       CLEAR     64  63  94 S5        29.80S
LONGVILLE      PTCLDY    64  63  94 CALM      29.81S
GRAND RAPIDS   CLOUDY    63  62  97 SE5       29.83F
CRANE LAKE     CLEAR     66  63  88 S2        29.82R
ORR            CLEAR     64  61  88 CALM      29.79S
COOK           CLEAR     64  63  94 CALM      29.82S
WALKER         CLOUDY    67  65  94 SW3       29.81R
$$
MNZ012-019>021-037-241000-
   Northeast Minnesota

CITY           SKY/WX    TMP DP  RH WIND       PRES   REMARKS
DULUTH         PTCLDY    66  63  90 CALM      29.83F
ELY            CLEAR     63  61  94 CALM      29.83F
HIBBING        PTCLDY    60  60 100 SE6       29.81F
EVELETH        CLOUDY    59  58  97 CALM      29.84F FOG
DULUTH HARBOR  CLOUDY    68  64  88 CALM      29.81F
TWO HARBORS    PTCLDY    63  57  82 CALM      29.81F
SILVER BAY     PTCLDY    59  57  94 CALM      29.81F
GRAND MARAIS     N/A     63  61  93 CALM      29.82F
G MARAIS ARPRT FOG       61  57  88 CALM      29.87F VSB 1
$$
MNZ029>031-032-039>041-046>048-054>057-064-241000-
   West Central Minnesota

CITY           SKY/WX    TMP DP  RH WIND       PRES   REMARKS
FERGUS FALLS   CLOUDY    70  66  88 NW6       29.85R
MORRIS         MOCLDY    68  66  94 W3        29.82S
ALEXANDRIA     CLOUDY    67  66  97 W6        29.85R
ELBOW LAKE     CLOUDY    67  66  95 NW5       29.84R
WADENA         CLOUDY    64  64 100 W5        29.82R
GLENWOOD       CLOUDY    66  64  94 SW5       29.84R
APPLETON       PTCLDY    70  64  83 W8        29.82R
BENSON         CLOUDY    66  64  94 CALM      29.82S
ORTONVILLE     PTCLDY    70  54  56 NW15G24   29.85R
MADISON        CLEAR     66  57  72 NW10      29.84R
WILLMAR        CLOUDY    68  66  94 CALM      29.83S
$$
MNZ033>034-036-042>043-049>051-058-059-241000-
   Central Minnesota

CITY           SKY/WX    TMP DP  RH WIND       PRES   REMARKS
ST CLOUD       CLOUDY    66  66 100 SW3       29.82R
SAUK CENTRE    CLOUDY    66  65  98 CALM      29.83R
PAYNESVILLE    CLOUDY    66  67 100 CALM      29.83R
AITKIN         CLOUDY    70  63  78 S5        29.81S
PINE RIVER     CLOUDY    64  64 100 CALM      29.85S
BRAINERD       CLOUDY    66  65  96 S3        29.83R
STAPLES        CLOUDY    64  63  94 S3        29.83R FOG
LONG PRAIRIE   CLOUDY    64  64 100 CALM      29.83S
LITTLE FALLS   CLOUDY    66  63  88 CALM      29.84R
LITCHFIELD     CLOUDY    68  66  94 CALM      29.83R
BUFFALO        CLOUDY    66  64  92 S3        29.83R
MAPLE LAKE     CLOUDY    67  66  97 CALM      29.83R
HUTCHINSON     CLOUDY    67  67  99 CALM      29.84R
$$
MNZ037-044-045-052-053-241000-
   East Central Minnesota

CITY           SKY/WX    TMP DP  RH WIND       PRES   REMARKS
PRINCETON      CLOUDY    66  66 100 CALM      29.82R
MORA           CLOUDY    64  63  94 CALM      29.84R
CAMBRIDGE      CLOUDY    68  63  83 CALM      29.80R
RUSH CITY      RAIN      66  65  94 CALM      29.82S
MOOSE LAKE     CLOUDY    66  63  88 CALM      29.81R
HINCKLEY       CLOUDY    66  66 100 CALM      29.82S
CLOQUET        CLOUDY    66  61  82 CALM      29.83F
MCGREGOR       MOCLDY    63  61  94 CALM      29.82F
$$
MNZ071>073-080-081-089-090-097-098-241000-
   Southwest Minnesota

CITY           SKY/WX    TMP DP  RH WIND       PRES   REMARKS
MONTEVIDEO     CLOUDY    66  66 100 W5        29.84S
GRANITE FALLS  CLOUDY    68  67  98 CALM      29.84S FOG
CANBY          PTCLDY    68  55  63 W9        29.87R
MARSHALL       CLOUDY    69  67  93 NW8       29.84S
REDWOOD FALLS  CLOUDY    68  65  90 S3        29.83R
OLIVIA         CLOUDY    68  64  88 SW3       29.82S
PIPESTONE      PTCLDY    70  66  88 NW10      29.87S
WINDOM         CLOUDY    70  66  88 CALM      29.84S FOG
WORTHINGTON    CLOUDY    69  67  93 SW5       29.86R
JACKSON        CLOUDY    70  64  83 SW5       29.86R
TRACY          MOCLDY    70  69  99 NW7       29.84S FOG
$$
MNZ065>067-074>077-082>085-091>093-241000-
   South Central Minnesota

CITY           SKY/WX    TMP DP  RH WIND       PRES   REMARKS
MANKATO        MOCLDY    70  66  88 S8        29.82S
NEW ULM          N/A     66  66 100 CALM      29.82R
ST JAMES       CLOUDY    63  63 100 CALM      29.84S FOG
FAIRMONT         N/A    N/A N/A N/A MISG        N/A
GLENCOE        CLOUDY    67  67 100 CALM      29.82R
FARIBAULT      CLOUDY    68  66  94 CALM      29.83S
OWATONNA       CLOUDY    70  66  88 S9        29.84R
WASECA         CLOUDY    70  68  94 S3        29.85R
ALBERT LEA     CLOUDY    70  70 100 S6        29.85S FOG
$$
MNZ078>079-086>088-094>096-241000-
   Southeast Minnesota

CITY           SKY/WX    TMP DP  RH WIND       PRES   REMARKS
ROCHESTER      CLOUDY    66  65  96 S10       29.86S
RED WING       CLOUDY    70  66  88 CALM      29.81S
DODGE CENTER   CLOUDY    68  66  94 S9        29.85R
WINONA         CLOUDY    68  64  88 CALM      29.84F
AUSTIN         CLOUDY    66  64  94 S5        29.85S
PRESTON        CLOUDY    64  62  93 S6        29.88S
$$
ABBREVIATIONS USED IN REMARKS
   TC - TEMPERATURES IN CELSIUS
  WCI - WIND CHILL INDEX
   HX - HEAT INDEX
  VSB - VISIBILITY
$$



USA.gov is the U.S. government's official web portal to all federal, state and local government web resources and services.